"Pseudo-MPEC" for C3ZQMR2

Created 2020 Nov 23 13:07:15 UT using Find_Orb

Click here for an explanation of pseudo-MPECs

 
 Astrometry: 
     C3ZQMR2  C2020 11 20.43543611 48 21.87 +54 21 35.8    ~BKB7 20.63GVNEOCPG96
     C3ZQMR2  C2020 11 20.44012511 48 22.45 +54 21 29.8    ~BKB7 20.38GVNEOCPG96
     C3ZQMR2  C2020 11 20.44481211 48 22.98 +54 21 23.4    ~BKB7 20.70GVNEOCPG96
     C3ZQMR2  C2020 11 20.44952611 48 23.51 +54 21 17.2    ~BKB7 20.92GVNEOCPG96
     C3ZQMR2 KC2020 11 20.51349711 48 30.83 +54 19 48.6    ~BKD7 20.39GVNEOCPI52
     C3ZQMR2 KC2020 11 20.51946311 48 31.48 +54 19 40.3    ~BKD7 20.82GVNEOCPI52
     C3ZQMR2 KC2020 11 20.52542611 48 32.14 +54 19 32.7    ~BKD7 20.36GVNEOCPI52
     C3ZQMR2 KC2020 11 20.53139311 48 32.89 +54 19 24.1    ~BKD7 20.39GVNEOCPI52
     C3ZQMR2 1C2020 11 20.98876 11 49 26.07 +54 08 33.1    ~BL07 21.0 VVNEOCP033
     C3ZQMR2 1C2020 11 20.99108 11 49 26.33 +54 08 30.4    ~BL07 20.8 VVNEOCP033
     C3ZQMR2 1C2020 11 20.99339 11 49 26.63 +54 08 27.3    ~BL07 21.3 VVNEOCP033
     C3ZQMR2 1C2020 11 20.99610 11 49 26.94 +54 08 23.5    ~BL07 21.0 VVNEOCP033
     C3ZQMR2 bC2020 11 21fX2k;e,u-XkO'p9Gl,^Is`tWtZ(:mo,.Z8)gJtqLge#4L;Ru58J;L01
     C3ZQMR2 bC2020 11 21:'iO0*B%jAstrometryP_(Y'RTxX0?CgSo)redacted;+krw;g8BL01
     C3ZQMR2 bC2020 11 21WA,;ce+m%gL,sZ*QjIN2WD;bi3`^RZ1sAL6click,1)eRUqKjUV4L01
     C3ZQMR2 KC2020 11 21.14543611 49 44.21 +54 04 57.3    ~BL47 20.8 GVNEOCPI93
     C3ZQMR2 KC2020 11 21.15899911 49 45.75 +54 04 38.2    ~BL47 20.5 GVNEOCPI93
     C3ZQMR2 KC2020 11 21.50164311 50 24.82 +53 56 37.4    ~BLCM 20.50GVNEOCPI52
     C3ZQMR2 KC2020 11 21.50317911 50 25.01 +53 56 35.2    ~BLCM 20.81GVNEOCPI52
     C3ZQMR2 KC2020 11 21.50471511 50 25.18 +53 56 33.1    ~BLCM 20.53GVNEOCPI52
     C3ZQMR2 KC2020 11 22Y+Fhere6)axLN80OjD`=egSLR67+Fc06gJwrq3U2f'foraXkjI5*204
     C3ZQMR2 KC2020 11 22@UKN[explanation$dLc05s.`K+2vsAb9HIq9mt)x;8#Cs'ayjri204
     C3ZQMR2 KC2020 11 22.51319411 52 17.64 +53 32 44.0    ~BMCq 21.06GVNEOCPI52
     C3ZQMR2 KC2020 11 22.51996711 52 18.36 +53 32 34.6    ~BMCq 20.63GVNEOCPI52
     C3ZQMR2 KC2020 11 22.52227211 52 18.62 +53 32 31.3    ~BMCq 20.50GVNEOCPI52
     C3ZQMR2 KC2020 11 23.48322211 54 02.39 +53 09 38.9    ~BNCb 20.75GVNEOCPI52
     C3ZQMR2 KC2020 11 23.48490311 54 02.62 +53 09 36.8    ~BNCb 20.53GVNEOCPI52
     C3ZQMR2 KC2020 11 23.48777011 54 02.91 +53 09 32.8    ~BNCb 20.21GVNEOCPI52

Station data:
(033) Karl Schwarzschild Observatory, Tautenburg  (N50.980140 E11.711240)
   Germany. 1.3-m Schmidt.
(204) Schiaparelli Observatory  (N45.867933 E8.770800)  Italy.  Observer L.
   Buzzi. 0.60-m f/4.64 Newtonian + CCD.
(G96) Mt. Lemmon Survey  (N32.442754 W110.788720)  US/Arizona.  Observers T.
   A. Pruyne, B. M. Africano, E. J. Christensen, G. A. Farneth, D. C. Fuls,
   A. R. Gibbs, A. D. Grauer, H. Gröller, J. A. Johnson, R. A. Kowalski, S.
   M. Larson, G. J. Leonard, D. Rankin, R. L. Seaman, F. C. Shelly. 1.5-m
   reflector + 10K CCD.
(I52) Steward Observatory, Mt. Lemmon Station  (N32.442547 W110.788920)
   US/Arizona.  Observers T. A. Pruyne, B. M. Africano, E. J. Christensen, G.
   A. Farneth, D. C. Fuls, A. R. Gibbs, A. D. Grauer, H. Gröller, J. A.
   Johnson, R. A. Kowalski, S. M. Larson, G. J. Leonard, D. Rankin, R. L.
   Seaman, F. C. Shelly. 1.0-m reflector + CCD.
(I93) St Pardon de Conques  (N44.558710 W0.203000)  France.  Observer F.
   Losse. 0.40-m f/3.7 reflector + CCD.
(L01) Višnjan Observatory, Tičan  (N45.290900 E13.749300)  Croatia.
   Observers K. Korlević, E. Pettarin. Measurer E. Pettarin. 1.0-m f/2.9
   reflector + CCD.

Orbital elements:  C3ZQMR2
   Perihelion 2021 Jan 10.774093 +/- 0.695 TT = 18:34:41 (JD 2459225.274093)
Epoch 2020 Nov 23.0 TT = JDT 2459176.5   Earth MOID: 0.3127   AutoNEOCP
M 347.92871425 +/- 1.9              (J2000 ecliptic)
n   0.24749380 +/- 0.041            Peri.  166.00539 +/- 1.0
a   2.51242533 +/- 0.277            Node   319.18364 +/- 0.9
e   0.4870850 +/- 0.0508            Incl.   40.24143 +/- 0.6
P   3.98                   H 18.5   G  0.15   U 10.6  
q 1.28866048 +/- 0.0185    Q 3.73619018 +/- 0.679
From 28 observations 2020 Nov. 20-23; mean residual 0".23
Residuals in arcseconds: 
201120 G96  .01-  .13-    201120 033  .14-  .05-    201122 204  .20-  .14-    
201120 G96  .32+  .28+    201120 033  .19-  .10-    201122 204  .12+  .21+    
201120 G96  .22+  .28+    201121 L01  .39-  .13+    201122 I52  .08-  .06-    
201120 G96  .09+  .53+    201121 L01  .07+  .02-    201122 I52  .04-  .00     
201120 I52  .18+  .31-    201121 L01  .22-  .37+    201122 I52  .11+  .08-    
201120 I52  .04-  .39-    201121 I93  .13+  .14+    201123 I52  .25-  .12-    
201120 I52  .16-  .23+    201121 I93  .23+  .23-    201123 I52  .27+  .14+    
201120 I52  .50+  .13-    201121 I52  .07-  .03-    201123 I52  .23+  .16+    
201120 033  .32-  .64-    201121 I52  .12+  .11-    
201120 033  .41-  .14-    201121 I52  .13+  .08-    

Ephemerides (geocentric):
Date (UTC) HH   RA              Dec         delta   r     elong  mag " sig PA
---- -- -- --  -------------   -----------  ------ ------ -----  --- ---- ---
2020 11 23 13  11 54 07.931   +53 08 14.51  .96440 1.3836  90.3 20.9 .209  39
2020 11 23 14  11 54 12.340   +53 07 14.82  .96401 1.3834  90.3 20.9 .216  38
2020 11 23 15  11 54 16.743   +53 06 15.11  .96362 1.3833  90.3 20.9 .224  36
2020 11 23 16  11 54 21.140   +53 05 15.39  .96323 1.3831  90.3 20.9 .233  35
2020 11 23 17  11 54 25.530   +53 04 15.65  .96285 1.3830  90.3 20.9 .241  34
2020 11 23 18  11 54 29.913   +53 03 15.89  .96246 1.3828  90.3 20.9 .250  33
2020 11 23 19  11 54 34.290   +53 02 16.11  .96207 1.3827  90.3 20.9 .259  31
2020 11 23 20  11 54 38.661   +53 01 16.31  .96168 1.3825  90.4 20.9 .269  30
2020 11 23 21  11 54 43.026   +53 00 16.50  .96129 1.3823  90.4 20.9 .279  29
2020 11 23 22  11 54 47.384   +52 59 16.67  .96090 1.3822  90.4 20.9 .289  28
2020 11 23 23  11 54 51.736   +52 58 16.82  .96051 1.3820  90.4 20.9 .299  27
2020 11 24 00  11 54 56.081   +52 57 16.96  .96012 1.3819  90.4 20.9 .310  26
2020 11 24 01  11 55 00.420   +52 56 17.07  .95973 1.3817  90.4 20.9 .321  26
2020 11 24 02  11 55 04.753   +52 55 17.17  .95934 1.3816  90.4 20.9 .332  25
2020 11 24 03  11 55 09.080   +52 54 17.25  .95895 1.3814  90.4 20.9 .344  24
2020 11 24 04  11 55 13.400   +52 53 17.32  .95856 1.3813  90.4 20.9 .356  23
2020 11 24 05  11 55 17.714   +52 52 17.36  .95817 1.3811  90.4 20.9 .368  23
2020 11 24 06  11 55 22.021   +52 51 17.39  .95778 1.3810  90.5 20.9 .381  22
2020 11 24 07  11 55 26.322   +52 50 17.40  .95739 1.3808  90.5 20.9 .394  21
2020 11 24 08  11 55 30.617   +52 49 17.39  .95700 1.3807  90.5 20.9 .407  21
2020 11 24 09  11 55 34.906   +52 48 17.37  .95661 1.3805  90.5 20.9 .420  20
2020 11 24 10  11 55 39.188   +52 47 17.33  .95622 1.3804  90.5 20.9 .434  20
2020 11 24 11  11 55 43.464   +52 46 17.26  .95583 1.3802  90.5 20.9 .448  19
2020 11 24 12  11 55 47.733   +52 45 17.18  .95544 1.3801  90.5 20.9 .462  19
2020 11 24 13  11 55 51.997   +52 44 17.09  .95505 1.3799  90.5 20.9 .477  18
2020 11 24 14  11 55 56.254   +52 43 16.97  .95466 1.3798  90.5 20.9 .492  18
2020 11 24 15  11 56 00.504   +52 42 16.84  .95427 1.3796  90.6 20.9 .507  17
2020 11 24 16  11 56 04.749   +52 41 16.69  .95388 1.3794  90.6 20.9 .522  17
2020 11 24 17  11 56 08.987   +52 40 16.52  .95349 1.3793  90.6 20.9 .538  17
2020 11 24 18  11 56 13.218   +52 39 16.33  .95310 1.3791  90.6 20.9 .554  16
2020 11 24 19  11 56 17.444   +52 38 16.13  .95270 1.3790  90.6 20.9 .570  16
2020 11 24 20  11 56 21.663   +52 37 15.90  .95231 1.3788  90.6 20.9 .587  15
2020 11 24 21  11 56 25.876   +52 36 15.66  .95192 1.3787  90.6 20.9 .604  15
2020 11 24 22  11 56 30.082   +52 35 15.40  .95153 1.3785  90.6 20.8 .621  15
2020 11 24 23  11 56 34.283   +52 34 15.13  .95114 1.3784  90.6 20.8 .638  14
2020 11 25 00  11 56 38.477   +52 33 14.83  .95075 1.3782  90.6 20.8 .656  14
2020 11 25 01  11 56 42.665   +52 32 14.51  .95036 1.3781  90.7 20.8 .674  14
2020 11 25 02  11 56 46.846   +52 31 14.18  .94997 1.3779  90.7 20.8 .693  14
2020 11 25 03  11 56 51.021   +52 30 13.83  .94958 1.3778  90.7 20.8 .712  13
2020 11 25 04  11 56 55.190   +52 29 13.46  .94918 1.3776  90.7 20.8 .731  13
2020 11 25 05  11 56 59.353   +52 28 13.07  .94879 1.3775  90.7 20.8 .750  13
2020 11 25 06  11 57 03.509   +52 27 12.67  .94840 1.3773  90.7 20.8 .770  13
2020 11 25 07  11 57 07.660   +52 26 12.24  .94801 1.3772  90.7 20.8 .790  12
2020 11 25 08  11 57 11.804   +52 25 11.80  .94762 1.3770  90.7 20.8 .810  12
2020 11 25 09  11 57 15.941   +52 24 11.34  .94723 1.3769  90.7 20.8 .831  12
2020 11 25 10  11 57 20.073   +52 23 10.86  .94683 1.3767  90.8 20.8 .851  12
2020 11 25 11  11 57 24.198   +52 22 10.36  .94644 1.3766  90.8 20.8 .873  11
2020 11 25 12  11 57 28.317   +52 21 09.85  .94605 1.3764  90.8 20.8 .894  11